Location: Dal�� Lhota
(48.7500°N, 14.0167°E)
Time: 02:03:47
(UTC+00:00)

Cosmos 372 Rocket - Pass Details

Date: 24 September 2020
Orbit: 739 x 767 km, 74.1° (Epoch: 29 October)

Event Time Altitude Azimuth Distance (km) Brightness Sun altitude
Rises 17:58:10 0° 209° (SSW) 3,222 7.5 -10.9°
Reaches altitude 10° 18:00:32 10° 211° (SSW) 2,298 6.7 -11.3°
Maximum altitude 18:05:44 69° 295° (WNW) 818 4.4 -12.1°
Drops below altitude 10° 18:10:57 10° 19° (NNE) 2,299 6.4 -12.9°
Sets 18:13:20 0° 22° (NNE) 3,224 7.2 -13.3°
